Location: Saluda
(35.2377°N, 82.3468°W)
Time: 04:35:52
(UTC+00:00)

Vanguard 2 - Pass Details

Date: 09 October 2022
Orbit: 553 x 2933 km, 32.9° (Epoch: 04 December)

Event Time Altitude Azimuth Distance (km) Brightness Sun altitude
Rises 14:18:32 0° 202° (SSW) 3,211 10.9 31.0°
Reaches altitude 10° 14:21:15 10° 184° (S) 2,533 10.7 31.4°
Maximum altitude 14:25:39 21° 137° (SE) 2,288 12.0 32.1°
Drops below altitude 10° 14:31:40 10° 94° (E) 3,613 11.9 33.1°
Sets 14:36:32 0° 81° (E) 5,094 12.2 33.9°
